OCN5MC LDDU-EDDF

Flight info

Callsign OCN5MC
Flight time 1h 47m
Altitude 36000
Route AMUGO DCT UVODI DCT PEVAL DCT SOTOV DCT NIKWU Q163 OLASO/N0419F320 Q163 HAFUN/N0368F240 Q163 ETASA T163 SPESA SPESA5C
Aircraft A320/M-SDE2E3FGIJ1LORWXYZ/HB1

Departure

Time 2026-04-18 06:00
Airport Dubrovnik Ruđer Bošković Airport (LDDU)

Arrival

Time 2026-04-18 07:47
Airport Frankfurt Main Airport (EDDF)
Time Latitude Longitude Altitude Speed Heading
2026-04-18 05:29 42.55936 18.26704 534 ft 0 kts 208°
2026-04-18 05:51 42.55941 18.26707 534 ft 4 kts 208°
2026-04-18 05:51 42.55957 18.26719 534 ft 4 kts 208°
2026-04-18 05:52 42.55976 18.26736 534 ft 4 kts 255°
2026-04-18 05:52 42.55974 18.26760 534 ft 2 kts 298°
2026-04-18 05:52 42.55967 18.26780 534 ft 0 kts 298°
2026-04-18 05:55 42.55971 18.26768 534 ft 4 kts 298°
2026-04-18 05:55 42.55997 18.26704 534 ft 12 kts 298°
2026-04-18 05:56 42.56048 18.26574 534 ft 16 kts 298°
2026-04-18 05:56 42.56104 18.26436 534 ft 17 kts 298°
2026-04-18 05:56 42.56163 18.26287 534 ft 19 kts 298°
2026-04-18 05:56 42.56226 18.26127 534 ft 20 kts 298°
2026-04-18 05:57 42.56366 18.25778 534 ft 22 kts 297°
2026-04-18 05:57 42.56438 18.25593 534 ft 23 kts 298°
2026-04-18 05:57 42.56518 18.25398 534 ft 24 kts 299°
2026-04-18 05:58 42.56594 18.25201 534 ft 21 kts 299°
2026-04-18 05:58 42.56665 18.25023 534 ft 22 kts 298°
2026-04-18 05:58 42.56734 18.24849 534 ft 18 kts 298°
2026-04-18 05:58 42.56789 18.24713 534 ft 16 kts 308°
2026-04-18 05:59 42.56887 18.24676 533 ft 15 kts 22°
2026-04-18 05:59 42.56935 18.24772 533 ft 10 kts 87°
2026-04-18 05:59 42.56910 18.24870 533 ft 12 kts 117°
2026-04-18 05:59 42.56813 18.25126 531 ft 63 kts 117°
2026-04-18 06:00 42.56502 18.25910 536 ft 122 kts 118°
2026-04-18 06:00 42.56030 18.27124 550 ft 166 kts 112°
2026-04-18 06:00 42.55511 18.28511 1175 ft 164 kts 111°
2026-04-18 06:00 42.54980 18.29879 1879 ft 168 kts 113°
2026-04-18 06:01 42.54388 18.31366 2267 ft 190 kts 113°
2026-04-18 06:01 42.53677 18.32995 2690 ft 213 kts 126°
2026-04-18 06:01 42.52331 18.33996 3358 ft 235 kts 169°
2026-04-18 06:01 42.50707 18.33581 4144 ft 248 kts 208°
2026-04-18 06:02 42.49424 18.32010 4976 ft 250 kts 225°
2026-04-18 06:02 42.48030 18.30592 5664 ft 258 kts 208°
2026-04-18 06:02 42.46542 18.29074 6097 ft 279 kts 232°
2026-04-18 06:02 42.45640 18.26725 6850 ft 284 kts 255°
2026-04-18 06:03 42.45454 18.24081 7658 ft 284 kts 279°
2026-04-18 06:03 42.45777 18.21441 8533 ft 285 kts 283°
2026-04-18 06:03 42.46141 18.18801 9440 ft 285 kts 284°
2026-04-18 06:03 42.46518 18.16154 10258 ft 289 kts 284°
2026-04-18 06:04 42.46919 18.13378 10551 ft 312 kts 284°
2026-04-18 06:04 42.47346 18.10419 10986 ft 325 kts 284°
2026-04-18 06:04 42.47773 18.07382 11686 ft 330 kts 284°
2026-04-18 06:04 42.48198 18.04320 12450 ft 333 kts 284°
2026-04-18 06:05 42.48624 18.01218 13184 ft 336 kts 284°
2026-04-18 06:05 42.49052 17.98087 13885 ft 340 kts 284°
2026-04-18 06:05 42.49482 17.94926 14532 ft 342 kts 284°
2026-04-18 06:05 42.49914 17.91748 15186 ft 344 kts 285°
2026-04-18 06:06 42.50349 17.88544 15807 ft 347 kts 285°
2026-04-18 06:06 42.50787 17.85311 16447 ft 350 kts 285°
2026-04-18 06:06 42.51228 17.82051 17079 ft 353 kts 285°
2026-04-18 06:06 42.51673 17.78764 17709 ft 356 kts 285°
2026-04-18 06:07 42.52122 17.75453 18339 ft 359 kts 285°
2026-04-18 06:07 42.52575 17.72116 18848 ft 361 kts 285°
2026-04-18 06:07 42.53029 17.68753 19379 ft 364 kts 285°
2026-04-18 06:07 42.53487 17.65366 19918 ft 366 kts 285°
2026-04-18 06:08 42.53957 17.61961 20457 ft 367 kts 287°
2026-04-18 06:08 42.54726 17.58681 20986 ft 364 kts 298°
2026-04-18 06:08 42.55926 17.55684 21490 ft 361 kts 308°
2026-04-18 06:08 42.57422 17.52948 21991 ft 362 kts 310°
2026-04-18 06:09 42.58938 17.50215 22501 ft 364 kts 310°
2026-04-18 06:09 42.60463 17.47459 23011 ft 366 kts 310°
2026-04-18 06:09 42.61993 17.44688 23512 ft 368 kts 310°
2026-04-18 06:09 42.63532 17.41899 23927 ft 370 kts 310°
2026-04-18 06:10 42.65077 17.39094 24304 ft 372 kts 310°
2026-04-18 06:10 42.66630 17.36267 24689 ft 374 kts 310°
2026-04-18 06:10 42.68190 17.33423 25083 ft 376 kts 310°
2026-04-18 06:10 42.69756 17.30569 25485 ft 378 kts 310°
2026-04-18 06:11 42.71331 17.27690 25889 ft 380 kts 310°
2026-04-18 06:11 42.72909 17.24803 26281 ft 381 kts 310°
2026-04-18 06:11 42.74493 17.21902 26664 ft 383 kts 310°
2026-04-18 06:11 42.76084 17.18986 27035 ft 385 kts 310°
2026-04-18 06:12 42.77682 17.16054 27408 ft 387 kts 310°
2026-04-18 06:12 42.79289 17.13106 27767 ft 388 kts 310°
2026-04-18 06:12 42.80904 17.10147 28128 ft 390 kts 310°
2026-04-18 06:12 42.82529 17.07171 28477 ft 392 kts 310°
2026-04-18 06:13 42.84160 17.04179 28809 ft 395 kts 310°
2026-04-18 06:13 42.85798 17.01168 29128 ft 397 kts 310°
2026-04-18 06:13 42.86332 17.00185 29240 ft 398 kts 310°
2026-04-18 06:14 42.87414 16.98237 29466 ft 398 kts 311°
2026-04-18 06:14 42.89094 16.95225 29784 ft 401 kts 310°
2026-04-18 06:14 42.90753 16.92161 30102 ft 403 kts 310°
2026-04-18 06:15 42.92407 16.89062 30383 ft 405 kts 309°
2026-04-18 06:15 42.94062 16.85949 30618 ft 406 kts 310°
2026-04-18 06:15 42.95726 16.82826 30873 ft 408 kts 310°
2026-04-18 06:15 42.97403 16.79689 31135 ft 409 kts 310°
2026-04-18 06:16 42.99088 16.76550 31377 ft 411 kts 310°
2026-04-18 06:16 43.00783 16.73405 31698 ft 411 kts 310°
2026-04-18 06:16 43.02476 16.70264 32047 ft 410 kts 310°
2026-04-18 06:16 43.04165 16.67128 32366 ft 410 kts 310°
2026-04-18 06:17 43.05852 16.63986 32695 ft 410 kts 310°
2026-04-18 06:17 43.07535 16.60843 33037 ft 409 kts 310°
2026-04-18 06:17 43.09213 16.57709 33385 ft 408 kts 310°
2026-04-18 06:17 43.10903 16.54599 33714 ft 406 kts 314°
2026-04-18 06:18 43.12805 16.51771 34042 ft 403 kts 318°
2026-04-18 06:18 43.14752 16.49019 34349 ft 402 kts 318°
2026-04-18 06:18 43.16696 16.46267 34621 ft 402 kts 318°
2026-04-18 06:18 43.18639 16.43518 34867 ft 402 kts 318°
2026-04-18 06:19 43.20583 16.40767 35129 ft 401 kts 318°
2026-04-18 06:19 43.22497 16.38054 35375 ft 401 kts 317°
2026-04-18 06:19 43.24458 16.35267 35610 ft 401 kts 317°
2026-04-18 06:19 43.26394 16.32508 35820 ft 401 kts 317°
2026-04-18 06:20 43.28326 16.29747 36040 ft 401 kts 317°
2026-04-18 06:20 43.30258 16.26987 36267 ft 401 kts 317°
2026-04-18 06:20 43.32161 16.24263 36485 ft 401 kts 317°
2026-04-18 06:20 43.34092 16.21503 36706 ft 400 kts 317°
2026-04-18 06:21 43.36021 16.18744 36922 ft 400 kts 317°
2026-04-18 06:21 43.37948 16.15986 37131 ft 400 kts 317°
2026-04-18 06:21 43.39871 16.13230 37335 ft 400 kts 317°
2026-04-18 06:21 43.41792 16.10468 37532 ft 400 kts 317°
2026-04-18 06:22 43.43714 16.07709 37730 ft 399 kts 317°
2026-04-18 06:22 43.45636 16.04950 37931 ft 399 kts 317°
2026-04-18 06:22 43.47557 16.02195 38061 ft 399 kts 317°
2026-04-18 06:23 43.51396 15.96678 38083 ft 398 kts 317°
2026-04-18 06:23 43.55223 15.91160 38092 ft 398 kts 317°
2026-04-18 06:24 43.59051 15.85633 38093 ft 398 kts 317°
2026-04-18 06:24 43.62870 15.80095 38092 ft 399 kts 317°
2026-04-18 06:25 43.66683 15.74536 38099 ft 399 kts 317°
2026-04-18 06:25 43.70507 15.68985 38105 ft 399 kts 317°
2026-04-18 06:26 43.74326 15.63433 38085 ft 398 kts 317°
2026-04-18 06:26 43.78136 15.57873 38092 ft 398 kts 317°
2026-04-18 06:27 43.81938 15.52305 38103 ft 398 kts 317°
2026-04-18 06:27 43.85740 15.46721 38112 ft 398 kts 317°
2026-04-18 06:28 43.89542 15.41137 38120 ft 398 kts 317°
2026-04-18 06:28 43.93337 15.35543 38127 ft 398 kts 317°
2026-04-18 06:29 43.97132 15.29941 38132 ft 399 kts 317°
2026-04-18 06:29 44.00927 15.24333 38119 ft 398 kts 317°
2026-04-18 06:30 44.04703 15.18762 38129 ft 399 kts 317°
2026-04-18 06:30 44.08496 15.13136 38131 ft 399 kts 317°
2026-04-18 06:31 44.12288 15.07497 38134 ft 399 kts 316°
2026-04-18 06:31 44.16070 15.01850 38126 ft 398 kts 316°
2026-04-18 06:32 44.19855 14.96203 38107 ft 399 kts 317°
2026-04-18 06:32 44.23639 14.90546 38122 ft 399 kts 316°
2026-04-18 06:33 44.27421 14.84882 38120 ft 399 kts 316°
2026-04-18 06:33 44.31199 14.79211 38122 ft 399 kts 316°
2026-04-18 06:34 44.34948 14.73574 38126 ft 399 kts 316°
2026-04-18 06:34 44.38715 14.67881 38123 ft 399 kts 316°
2026-04-18 06:35 44.42480 14.62186 38125 ft 399 kts 316°
2026-04-18 06:35 44.46245 14.56484 38132 ft 399 kts 316°
2026-04-18 06:36 44.50008 14.50786 38136 ft 398 kts 316°
2026-04-18 06:36 44.53759 14.45086 38131 ft 398 kts 316°
2026-04-18 06:37 44.57509 14.39368 38111 ft 398 kts 316°
2026-04-18 06:37 44.61260 14.33638 38114 ft 399 kts 316°
2026-04-18 06:38 44.65009 14.27894 38119 ft 399 kts 316°
2026-04-18 06:38 44.68760 14.22154 38129 ft 399 kts 316°
2026-04-18 06:39 44.72512 14.16400 38130 ft 399 kts 316°
2026-04-18 06:39 44.76266 14.10623 38103 ft 400 kts 316°
2026-04-18 06:40 44.79386 14.05808 38115 ft 401 kts 316°
2026-04-18 06:40 44.83147 13.99992 38118 ft 402 kts 316°
2026-04-18 06:41 44.86910 13.94171 38122 ft 402 kts 316°
2026-04-18 06:41 44.90668 13.88331 38129 ft 402 kts 316°
2026-04-18 06:42 44.94430 13.82482 38118 ft 402 kts 315°
2026-04-18 06:42 44.98190 13.76621 38122 ft 403 kts 315°
2026-04-18 06:43 45.01959 13.70746 38131 ft 403 kts 315°
2026-04-18 06:43 45.05719 13.64855 38135 ft 404 kts 315°
2026-04-18 06:44 45.09482 13.58951 38134 ft 404 kts 315°
2026-04-18 06:44 45.13215 13.53078 38121 ft 404 kts 315°
2026-04-18 06:45 45.16986 13.47154 38125 ft 405 kts 315°
2026-04-18 06:45 45.20758 13.41213 38135 ft 406 kts 315°
2026-04-18 06:46 45.24519 13.35257 38141 ft 405 kts 315°
2026-04-18 06:46 45.28280 13.29282 38145 ft 406 kts 315°
2026-04-18 06:47 45.32164 13.23501 38129 ft 403 kts 323°
2026-04-18 06:47 45.36458 13.18376 38128 ft 403 kts 322°
2026-04-18 06:48 45.40749 13.13228 38133 ft 404 kts 322°
2026-04-18 06:48 45.45036 13.08052 38137 ft 404 kts 322°
2026-04-18 06:49 45.49320 13.02872 38144 ft 404 kts 322°
2026-04-18 06:49 45.53609 12.97692 38146 ft 404 kts 322°
2026-04-18 06:50 45.57862 12.92532 38133 ft 404 kts 322°
2026-04-18 06:50 45.62148 12.87325 38133 ft 405 kts 322°
2026-04-18 06:51 45.66434 12.82104 38138 ft 405 kts 322°
2026-04-18 06:51 45.70720 12.76872 38146 ft 405 kts 322°
2026-04-18 06:52 45.75004 12.71627 38150 ft 405 kts 322°
2026-04-18 06:52 45.79290 12.66377 38137 ft 405 kts 321°
2026-04-18 06:53 45.83576 12.61117 38135 ft 406 kts 321°
2026-04-18 06:53 45.87865 12.55837 38142 ft 407 kts 321°
2026-04-18 06:54 45.92156 12.50535 38161 ft 407 kts 321°
2026-04-18 06:54 45.96453 12.45229 38162 ft 408 kts 321°
2026-04-18 06:55 46.00753 12.39920 38163 ft 407 kts 321°
2026-04-18 06:55 46.05044 12.34588 38144 ft 408 kts 321°
2026-04-18 06:56 46.09343 12.29245 38149 ft 409 kts 321°
2026-04-18 06:56 46.13623 12.23911 38154 ft 410 kts 321°
2026-04-18 06:57 46.17929 12.18524 38164 ft 410 kts 321°
2026-04-18 06:57 46.24388 12.10440 38160 ft 410 kts 321°
2026-04-18 06:58 46.28698 12.05040 38157 ft 411 kts 320°
2026-04-18 06:58 46.33019 11.99602 38164 ft 412 kts 320°
2026-04-18 06:59 46.37333 11.94154 38188 ft 412 kts 320°
2026-04-18 06:59 46.41646 11.88698 38191 ft 411 kts 320°
2026-04-18 07:00 46.45953 11.83236 38193 ft 411 kts 320°
2026-04-18 07:00 46.50258 11.77777 38194 ft 411 kts 320°
2026-04-18 07:01 46.54556 11.72314 38196 ft 411 kts 320°
2026-04-18 07:01 46.58847 11.66841 38205 ft 410 kts 320°
2026-04-18 07:02 46.63141 11.61357 38206 ft 411 kts 320°
2026-04-18 07:02 46.67430 11.55869 38208 ft 410 kts 320°
2026-04-18 07:03 46.71713 11.50371 38208 ft 410 kts 319°
2026-04-18 07:03 46.75961 11.44891 38203 ft 410 kts 319°
2026-04-18 07:04 46.80021 11.39647 38208 ft 411 kts 319°
2026-04-18 07:04 46.84305 11.34120 38220 ft 411 kts 319°
2026-04-18 07:05 46.88206 11.29106 38230 ft 411 kts 319°
2026-04-18 07:05 46.92487 11.23555 38223 ft 411 kts 318°
2026-04-18 07:06 46.97173 11.18790 38231 ft 412 kts 330°
2026-04-18 07:06 47.02183 11.14717 38234 ft 412 kts 330°
2026-04-18 07:07 47.07187 11.10625 38234 ft 412 kts 330°
2026-04-18 07:07 47.12199 11.06522 38230 ft 412 kts 330°
2026-04-18 07:08 47.17216 11.02398 38231 ft 413 kts 330°
2026-04-18 07:08 47.22232 10.98269 38230 ft 413 kts 330°
2026-04-18 07:09 47.27252 10.94130 38233 ft 414 kts 330°
2026-04-18 07:09 47.32234 10.90017 38228 ft 413 kts 329°
2026-04-18 07:10 47.37274 10.85845 38216 ft 413 kts 329°
2026-04-18 07:10 47.42290 10.81684 38207 ft 414 kts 329°
2026-04-18 07:11 47.47305 10.77510 38205 ft 414 kts 329°
2026-04-18 07:11 47.52315 10.73327 38217 ft 414 kts 329°
2026-04-18 07:12 47.57304 10.69160 38201 ft 414 kts 329°
2026-04-18 07:12 47.62327 10.64957 38198 ft 415 kts 329°
2026-04-18 07:13 47.67350 10.60750 38188 ft 415 kts 329°
2026-04-18 07:13 47.72374 10.56531 38184 ft 415 kts 329°
2026-04-18 07:14 47.77395 10.52297 38183 ft 415 kts 328°
2026-04-18 07:14 47.82413 10.48054 38199 ft 415 kts 329°
2026-04-18 07:15 47.87432 10.43802 38198 ft 415 kts 328°
2026-04-18 07:15 47.92610 10.40085 38192 ft 417 kts 336°
2026-04-18 07:16 47.97995 10.36894 38198 ft 417 kts 336°
2026-04-18 07:16 48.03386 10.33664 38192 ft 417 kts 336°
2026-04-18 07:17 48.08777 10.30438 38223 ft 417 kts 336°
2026-04-18 07:17 48.14169 10.27212 38200 ft 418 kts 336°
2026-04-18 07:18 48.19546 10.23904 38185 ft 417 kts 331°
2026-04-18 07:18 48.24291 10.19021 38203 ft 414 kts 319°
2026-04-18 07:19 48.28738 10.13617 38204 ft 414 kts 319°
2026-04-18 07:19 48.30953 10.10930 38093 ft 416 kts 319°
2026-04-18 07:19 48.33200 10.08206 37813 ft 415 kts 319°
2026-04-18 07:20 48.35444 10.05481 37537 ft 415 kts 319°
2026-04-18 07:20 48.37688 10.02750 37267 ft 415 kts 319°
2026-04-18 07:20 48.39935 10.00011 36995 ft 416 kts 319°
2026-04-18 07:20 48.42185 9.97264 36728 ft 417 kts 319°
2026-04-18 07:21 48.44373 9.94590 36481 ft 417 kts 319°
2026-04-18 07:21 48.46607 9.91864 36219 ft 416 kts 319°
2026-04-18 07:21 48.48870 9.89102 35947 ft 415 kts 318°
2026-04-18 07:21 48.51102 9.86372 35707 ft 413 kts 318°
2026-04-18 07:22 48.53328 9.83643 35444 ft 411 kts 318°
2026-04-18 07:22 48.55542 9.80924 35191 ft 409 kts 318°
2026-04-18 07:22 48.57744 9.78214 34945 ft 408 kts 318°
2026-04-18 07:22 48.59935 9.75511 34701 ft 406 kts 318°
2026-04-18 07:23 48.62066 9.72835 34458 ft 405 kts 317°
2026-04-18 07:23 48.64191 9.70063 34227 ft 402 kts 316°
2026-04-18 07:23 48.66254 9.67322 33979 ft 401 kts 315°
2026-04-18 07:23 48.68337 9.64538 33698 ft 399 kts 315°
2026-04-18 07:24 48.70418 9.61758 33426 ft 398 kts 315°
2026-04-18 07:24 48.72490 9.59000 33160 ft 396 kts 315°
2026-04-18 07:24 48.74561 9.56261 32889 ft 393 kts 316°
2026-04-18 07:24 48.76598 9.53566 32444 ft 390 kts 316°
2026-04-18 07:25 48.78646 9.50858 31960 ft 387 kts 316°
2026-04-18 07:25 48.80645 9.48215 31499 ft 384 kts 316°
2026-04-18 07:25 48.82647 9.45557 31031 ft 382 kts 316°
2026-04-18 07:25 48.84635 9.42916 30577 ft 378 kts 316°
2026-04-18 07:26 48.86608 9.40287 30107 ft 375 kts 315°
2026-04-18 07:26 48.88557 9.37682 29648 ft 371 kts 315°
2026-04-18 07:26 48.90503 9.35128 29226 ft 368 kts 319°
2026-04-18 07:26 48.92640 9.33015 28807 ft 366 kts 329°
2026-04-18 07:27 48.94911 9.31301 28394 ft 363 kts 330°
2026-04-18 07:27 48.97051 9.29682 27995 ft 359 kts 330°
2026-04-18 07:27 48.99242 9.28011 27578 ft 355 kts 330°
2026-04-18 07:27 49.01470 9.26394 26961 ft 359 kts 337°
2026-04-18 07:28 49.03980 9.25702 25978 ft 378 kts 358°
2026-04-18 07:28 49.06638 9.25953 25320 ft 383 kts
2026-04-18 07:28 49.09287 9.26263 24849 ft 380 kts
2026-04-18 07:28 49.11955 9.26572 24355 ft 378 kts
2026-04-18 07:29 49.14573 9.26868 23870 ft 377 kts
2026-04-18 07:29 49.17163 9.27117 23338 ft 375 kts
2026-04-18 07:29 49.19725 9.27387 22864 ft 372 kts
2026-04-18 07:29 49.22296 9.27680 22396 ft 369 kts
2026-04-18 07:30 49.24848 9.27982 21929 ft 367 kts
2026-04-18 07:30 49.27382 9.28277 21475 ft 364 kts
2026-04-18 07:30 49.29901 9.28561 21020 ft 361 kts
2026-04-18 07:30 49.32399 9.28836 20574 ft 359 kts
2026-04-18 07:31 49.34078 9.29022 20276 ft 357 kts
2026-04-18 07:31 49.36552 9.29296 19831 ft 356 kts
2026-04-18 07:31 49.38982 9.29564 19402 ft 355 kts
2026-04-18 07:31 49.41443 9.29830 18971 ft 354 kts
2026-04-18 07:32 49.43886 9.30093 18549 ft 352 kts
2026-04-18 07:32 49.46311 9.30361 18139 ft 348 kts
2026-04-18 07:32 49.48726 9.30631 17688 ft 346 kts
2026-04-18 07:32 49.51118 9.30896 17210 ft 344 kts
2026-04-18 07:33 49.53499 9.31163 16795 ft 341 kts
2026-04-18 07:33 49.55856 9.31431 16390 ft 338 kts
2026-04-18 07:33 49.58197 9.31696 15983 ft 336 kts
2026-04-18 07:33 49.60521 9.31957 15598 ft 334 kts
2026-04-18 07:34 49.62836 9.32214 15196 ft 333 kts
2026-04-18 07:34 49.65139 9.32464 14803 ft 331 kts
2026-04-18 07:34 49.67430 9.32716 14409 ft 330 kts
2026-04-18 07:34 49.69714 9.32971 14018 ft 328 kts
2026-04-18 07:35 49.71981 9.33225 13658 ft 325 kts
2026-04-18 07:35 49.74228 9.33481 13298 ft 322 kts
2026-04-18 07:35 49.76451 9.33734 12915 ft 320 kts
2026-04-18 07:35 49.78664 9.33985 12522 ft 318 kts
2026-04-18 07:36 49.80864 9.34234 12135 ft 316 kts
2026-04-18 07:36 49.83054 9.34481 11737 ft 315 kts
2026-04-18 07:36 49.85237 9.34560 11341 ft 312 kts 353°
2026-04-18 07:36 49.87332 9.33851 11030 ft 305 kts 338°
2026-04-18 07:37 49.89212 9.32476 10899 ft 295 kts 331°
2026-04-18 07:37 49.91028 9.31033 10729 ft 292 kts 331°
2026-04-18 07:37 49.92834 9.29601 10582 ft 291 kts 331°
2026-04-18 07:37 49.94636 9.28169 10391 ft 291 kts 331°
2026-04-18 07:38 49.96457 9.26718 9799 ft 297 kts 331°
2026-04-18 07:38 49.98280 9.25261 9492 ft 292 kts 331°
2026-04-18 07:38 50.00080 9.23822 9118 ft 290 kts 331°
2026-04-18 07:38 50.01862 9.22398 8621 ft 287 kts 331°
2026-04-18 07:39 50.03632 9.20987 8032 ft 285 kts 332°
2026-04-18 07:39 50.05393 9.19580 7504 ft 282 kts 332°
2026-04-18 07:39 50.07120 9.18195 7175 ft 279 kts 330°
2026-04-18 07:39 50.08688 9.16463 6886 ft 275 kts 314°
2026-04-18 07:40 50.09884 9.14164 6568 ft 273 kts 299°
2026-04-18 07:40 50.10864 9.11643 6239 ft 272 kts 299°
2026-04-18 07:40 50.11850 9.09126 5934 ft 272 kts 300°
2026-04-18 07:40 50.12700 9.06515 5619 ft 269 kts 287°
2026-04-18 07:41 50.13255 9.03743 5317 ft 265 kts 284°
2026-04-18 07:41 50.13599 9.01005 5043 ft 258 kts 269°
2026-04-18 07:41 50.13357 8.98301 4785 ft 248 kts 250°
2026-04-18 07:41 50.12772 8.95804 4531 ft 242 kts 249°
2026-04-18 07:42 50.12203 8.93369 4272 ft 237 kts 249°
2026-04-18 07:42 50.11646 8.90987 4066 ft 230 kts 249°
2026-04-18 07:42 50.11109 8.88699 4005 ft 221 kts 249°
2026-04-18 07:42 50.10584 8.86464 4010 ft 215 kts 249°
2026-04-18 07:43 50.10075 8.84299 3794 ft 213 kts 249°
2026-04-18 07:43 50.09562 8.82127 3529 ft 214 kts 249°
2026-04-18 07:43 50.09042 8.79918 3230 ft 220 kts 249°
2026-04-18 07:43 50.08514 8.77681 2927 ft 218 kts 249°
2026-04-18 07:44 50.08003 8.75516 2645 ft 208 kts 250°
2026-04-18 07:44 50.07516 8.73459 2391 ft 195 kts 250°
2026-04-18 07:44 50.07063 8.71546 2121 ft 182 kts 251°
2026-04-18 07:44 50.06638 8.69751 1877 ft 171 kts 250°
2026-04-18 07:45 50.06237 8.68058 1653 ft 163 kts 250°
2026-04-18 07:45 50.05857 8.66455 1447 ft 153 kts 251°
2026-04-18 07:45 50.05500 8.64953 1255 ft 145 kts 250°
2026-04-18 07:45 50.05152 8.63494 1048 ft 143 kts 251°
2026-04-18 07:46 50.04811 8.62046 847 ft 141 kts 251°
2026-04-18 07:46 50.04476 8.60626 674 ft 139 kts 251°
2026-04-18 07:46 50.04136 8.59201 490 ft 142 kts 251°
2026-04-18 07:46 50.03792 8.57764 370 ft 136 kts 250°
2026-04-18 07:47 50.03506 8.56562 359 ft 98 kts 250°
2026-04-18 07:47 50.03306 8.55724 347 ft 67 kts 250°
2026-04-18 07:47 50.03195 8.55250 346 ft 29 kts 254°
2026-04-18 07:47 50.03180 8.54946 349 ft 29 kts 277°
2026-04-18 07:48 50.03214 8.54641 338 ft 21 kts 282°
2026-04-18 07:48 50.03307 8.54481 336 ft 19 kts 336°
2026-04-18 07:48 50.03402 8.54429 337 ft 11 kts 340°
2026-04-18 07:48 50.03458 8.54397 347 ft 7 kts 340°
2026-04-18 07:49 50.03500 8.54372 350 ft 7 kts 340°
2026-04-18 07:49 50.03542 8.54348 348 ft 8 kts 340°
2026-04-18 07:49 50.03621 8.54307 343 ft 13 kts 349°
2026-04-18 07:49 50.03686 8.54381 350 ft 12 kts 29°
2026-04-18 07:50 50.03757 8.54361 346 ft 9 kts 339°
2026-04-18 07:50 50.03805 8.54334 350 ft 5 kts 340°
2026-04-18 07:50 50.03842 8.54312 352 ft 6 kts 340°
2026-04-18 07:50 50.03881 8.54290 353 ft 5 kts 340°
2026-04-18 07:51 50.03902 8.54267 355 ft 3 kts 298°
2026-04-18 07:51 50.03894 8.54221 355 ft 5 kts 251°
2026-04-18 07:51 50.03880 8.54160 355 ft 4 kts 250°
2026-04-18 07:51 50.03877 8.54145 343 ft 0 kts 250°